Regional Weather Roundup
Issued by NWS

Home | Current Version | Previous Version | Graphics & Text | Print | Product List | Glossary On
Versions: 1 2 3 4 5 6 7 8 9 10 11 12 13 14 15 16 17 18 19 20 21 22 23 24 25 26 27 28 29 30 31 32 33 34 35 36 37 38 39 40 41 42 43 44 45 46 47 48 49 50
000
ASUS43 KLOT 301702
RWRIL

ILLINOIS REGIONAL WEATHER ROUNDUP
NATIONAL WEATHER SERVICE CHICAGO/ROMEOVILLE IL
1200 PM CDT SAT MAY 30 2015

NOTE: "FAIR" INDICATES FEW OR NO CLOUDS BELOW 12,000 FEET WITH NO
SIGNIFICANT WEATHER AND/OR OBSTRUCTIONS TO VISIBILITY.

* THESE STATIONS ARE NOT UNDER NWS QUALITY CONTROL. THEY ALSO MAY NOT
  REPORT WEATHER SUCH AS PRECIPITATION OR FOG.

ILZ001-002-007-009-015-016-024-301800-
NORTHWEST ILLINOIS

CITY           SKY/WX    TMP DP  RH WIND       PRES   REMARKS
MOLINE         CLOUDY    71  65  81 CALM      29.98S
STERLING*      CLOUDY    70  64  83 CALM      29.99F
$$

ILZ003-004-008-010-011-017-018-301800-
NORTH CENTRAL ILLINOIS

CITY           SKY/WX    TMP DP  RH WIND       PRES   REMARKS
ROCKFORD       LGT RAIN  68  65  90 S5        30.01R FOG
FREEPORT*      HVY RAIN  57  56  95 N18       30.03R
$$

ILZ005-006-012>014-019>023-301800-
NORTHEAST ILLINOIS

CITY           SKY/WX    TMP DP  RH WIND       PRES   REMARKS
CHICAGO-OHARE  LGT RAIN  52  51  97 N15       30.03R
CHICAGO-MIDWAY CLOUDY    59  57  93 NE10      30.01R
AURORA         CLOUDY    70  63  78 SW3       30.00S
LANSING*       CLOUDY    69  64  82 CALM      29.99F
WAUKEGAN       LGT RAIN  49  47  93 N15G22    30.05R
DUPAGE AIRPORT LGT RAIN  69  63  81 CALM      30.00S
WHEELING       LGT RAIN  51  49  92 NE15G22   30.05S FOG
NORTHERLY ISL    N/A     52  51  97 N17         N/A
$$

LMZ740>746-301800-
SOUTHERN LAKE MICHIGAN

STATION/POSITION SKY/WX   TEMP    WIND        PRES    VSBY  WAVE
                          AIR SEA DIR/SP/G                  HT/PER
                          (F)     (DEG/KT/KT) (MB)    (MI)  (FT/S)
SOUTHERN BUOY              41 38  360/  6/  8 1017.0          1
HARRISON CRIB                     350/ 18/ 20   N/A
BURNHAM HARBOR             54     360/ 13/ 17   N/A
CALUMET HARBOR             56     330/ 11/ 18   N/A
BURNS HARBOR               64     310/  4/  4 1016.6R
MICHIGAN CITY              65     250/ 10/ 11   N/A
MICHIGAN CITY 6N           60 57  280/  4/  8   N/A           0
ST. JOSEPH                 61 57  290/  4/  4   N/A           1
$$

ILZ025>027-034>036-040-047-049-050-058-095>099-301800-
WEST-CENTRAL ILLINOIS

CITY           SKY/WX    TMP DP  RH WIND       PRES   REMARKS
QUINCY         CLOUDY    70  65  84 NW3       29.99F
MACOMB*        LGT RAIN  69  65  88 W3        30.01F
$$

ILZ028>032-037-038-041>044-048-051>054-059>061-301800-
CENTRAL ILLINOIS

CITY           SKY/WX    TMP DP  RH WIND       PRES   REMARKS
DECATUR        CLOUDY    75  68  78 S3        29.96F
PEORIA         RAIN      69  65  86 N3        29.99S FOG
LINCOLN*       DRIZZLE   71  67  87 CALM      29.95F
SPRINGFIELD    LGT RAIN  72  67  84 N5        29.97F
TAYLORVILLE    NOT AVBL
$$

ILZ033-039-045-046-055>057-062-063-301800-
EAST-CENTRAL ILLINOIS

CITY           SKY/WX    TMP DP  RH WIND       PRES   REMARKS
CHAMPAIGN      CLOUDY    74  70  87 E3        29.96F
MATTOON        PTSUNNY   78  68  71 SW10G22   29.95F HX  80
$$

ILZ079-100>102-301800-
SOUTHWEST ILLINOIS

CITY           SKY/WX    TMP DP  RH WIND       PRES   REMARKS
BELLEVILLE     CLOUDY    75  73  94 W9        29.93F
CAHOKIA*       PTSUNNY   74  68  81 NW3       29.95S
SPARTA*        PTSUNNY   74  71  91 CALM      29.95F
$$

ILZ064>066-069>071-074>076-080>082-084>086-088>090-092>094-301800-
SOUTH-CENTRAL ILLINOIS

CITY           SKY/WX    TMP DP  RH WIND       PRES   REMARKS
CARBONDALE     MOSUNNY   80  68  66 S14G22    29.94F HX  83
MARION         PTSUNNY   81  70  69 S14       29.96F HX  84
MT. VERNON     CLOUDY    79  68  69 S10       29.96F HX  81
SALEM*         PTSUNNY   74  67  80 NW5       29.96S
$$

ILZ067-068-072-073-078-083-087-091-301800-
SOUTHEAST ILLINOIS

CITY           SKY/WX    TMP DP  RH WIND       PRES   REMARKS
LAWRENCEVILLE  MOSUNNY   86  67  52 S22G29    29.96F HX  89
FLORA*         MOSUNNY   76  70  80 SW9       29.96F
HARRISBURG*    MOSUNNY   80  67  65 S8        29.97F HX  82
ROBINSON*      PTSUNNY   81  66  59 S10       29.96F HX  83
$$

ABBREVIATIONS USED IN REMARKS
   TC - TEMPERATURE IN CELSIUS
  WCI - WIND CHILL INDEX
   HX - HEAT INDEX
  VSB - VISIBILITY
$$



USA.gov is the U.S. government's official web portal to all federal, state and local government web resources and services.